This is the latest recevied weather packets stored in our database for station/object KF0TNT. If no packets are shown the sender has not sent any weather packets the latest 10 day(s).
| Time | Temp. | Humidity | Pressure | Rain* | Wind** | Luminosity | Snow |
|---|---|---|---|---|---|---|---|
| 1777519079 | 3.33° C | 91% | 1022.6 hPa | 1.78 mm | - | 0 W/m² | - |
| 1777518776 | 3.33° C | 91% | 1022.8 hPa | 1.27 mm | - | 0 W/m² | - |
| 1777518472 | 3.89° C | 90% | 1022.6 hPa | 1.27 mm | - | 0 W/m² | - |
| 1777518167 | 3.89° C | 90% | 1022.7 hPa | 1.27 mm | - | 0 W/m² | - |
| 1777517864 | 3.89° C | 89% | 1022.3 hPa | 1.27 mm | - | 0 W/m² | - |
| 1777517559 | 3.89° C | 89% | 1022.3 hPa | 0 mm | - | 0 W/m² | - |
| 1777517258 | 3.89° C | 89% | 1022.2 hPa | 1.27 mm | - | 0 W/m² | - |
| 1777516957 | 3.89° C | 88% | 1022 hPa | 1.27 mm | - | 0 W/m² | - |
| 1777516653 | 3.89° C | 88% | 1021.8 hPa | 1.27 mm | - | 0 W/m² | - |
| 1777516349 | 4.44° C | 87% | 1022.1 hPa | 0 mm | - | 0 W/m² | - |
| 1777516045 | 4.44° C | 86% | 1021.8 hPa | 0 mm | - | 0 W/m² | - |
| 1777515742 | 4.44° C | 84% | 1021.7 hPa | 0.51 mm | - | 0 W/m² | - |
| 1777515439 | 5° C | 83% | 1021.8 hPa | 1.27 mm | - | 0 W/m² | - |
| 1777515136 | 5° C | 85% | 1021.6 hPa | 1.78 mm | - | 0 W/m² | - |
| 1777514832 | 5° C | 85% | 1021.6 hPa | 1.78 mm | - | 0 W/m² | - |
| 1777514529 | 5° C | 84% | 1021.3 hPa | 1.78 mm | - | 0 W/m² | - |
| 1777514227 | 5.56° C | 83% | 1021.1 hPa | 0.51 mm | - | 0 W/m² | - |
| 1777513922 | 5.56° C | 83% | 1021.2 hPa | 0.51 mm | - | 1 W/m² | - |
| 1777513620 | 5.56° C | 83% | 1021.5 hPa | 0.51 mm | - | 2 W/m² | - |
| 1777513316 | 5.56° C | 82% | 1021.2 hPa | 0 mm | - | 3 W/m² | - |
| 1777513013 | 5.56° C | 81% | 1021.2 hPa | 0 mm | - | 5 W/m² | - |
| 1777512709 | 5.56° C | 81% | 1020.9 hPa | 0 mm | - | 7 W/m² | - |
| 1777512406 | 5.56° C | 83% | 1021 hPa | 0 mm | - | 8 W/m² | - |
| 1777512103 | 5.56° C | 82% | 1021 hPa | 0 mm | - | 9 W/m² | - |
| 1777511801 | 5.56° C | 82% | 1020.7 hPa | 0 mm | - | 12 W/m² | - |
* Rain latest hour (hover to see other rain measurements)
** Current wind speed in m/s (hover to see current wind gust speed)